<?xml version="1.0"?>
<gpx xmlns="http://www.topografix.com/GPX/1/1" xmlns:xsi="http://www.w3.org/2001/XMLSchema-instance" version="1.1" creator="GPX RubyGem 1.0.0 -- http://dougfales.github.io/gpx/" xsi:schemaLocation="http://www.topografix.com/GPX/1/1 http://www.topografix.com/GPX/1/1/gpx.xsd">
  <metadata>
    <name/>
    <time>2026-05-08T13:41:26+00:00</time>
    <bound minlat="90.0" minlon="180.0" maxlat="-90.0" maxlon="-180.0"/>
  </metadata>
  <trk>
    <name/>
    <trkseg>
      <trkpt lat="42.390143" lon="3.002467">
        <time>1970-01-01T00:00:00+00:00</time>
        <ele>106.0</ele>
      </trkpt>
      <trkpt lat="42.390428" lon="3.00251">
        <time>1970-01-01T00:00:00+00:00</time>
        <ele>106.0</ele>
      </trkpt>
      <trkpt lat="42.390645" lon="3.002512">
        <time>1970-01-01T00:00:00+00:00</time>
        <ele>105.0</ele>
      </trkpt>
      <trkpt lat="42.390819" lon="3.001754">
        <time>1970-01-01T00:00:00+00:00</time>
        <ele>114.0</ele>
      </trkpt>
      <trkpt lat="42.390921" lon="3.001739">
        <time>1970-01-01T00:00:00+00:00</time>
        <ele>114.0</ele>
      </trkpt>
      <trkpt lat="42.390954" lon="3.00171">
        <time>1970-01-01T00:00:00+00:00</time>
        <ele>115.0</ele>
      </trkpt>
      <trkpt lat="42.390992" lon="3.001551">
        <time>1970-01-01T00:00:00+00:00</time>
        <ele>116.0</ele>
      </trkpt>
      <trkpt lat="42.391198" lon="3.001551">
        <time>1970-01-01T00:00:00+00:00</time>
        <ele>115.0</ele>
      </trkpt>
      <trkpt lat="42.391394" lon="3.001518">
        <time>1970-01-01T00:00:00+00:00</time>
        <ele>115.0</ele>
      </trkpt>
      <trkpt lat="42.391475" lon="3.001527">
        <time>1970-01-01T00:00:00+00:00</time>
        <ele>114.0</ele>
      </trkpt>
      <trkpt lat="42.391597" lon="3.001513">
        <time>1970-01-01T00:00:00+00:00</time>
        <ele>114.0</ele>
      </trkpt>
      <trkpt lat="42.391814" lon="3.001417">
        <time>1970-01-01T00:00:00+00:00</time>
        <ele>115.0</ele>
      </trkpt>
      <trkpt lat="42.392064" lon="3.001256">
        <time>1970-01-01T00:00:00+00:00</time>
        <ele>117.0</ele>
      </trkpt>
      <trkpt lat="42.392146" lon="3.001355">
        <time>1970-01-01T00:00:00+00:00</time>
        <ele>116.0</ele>
      </trkpt>
      <trkpt lat="42.392197" lon="3.001487">
        <time>1970-01-01T00:00:00+00:00</time>
        <ele>115.0</ele>
      </trkpt>
      <trkpt lat="42.392317" lon="3.001374">
        <time>1970-01-01T00:00:00+00:00</time>
        <ele>115.0</ele>
      </trkpt>
      <trkpt lat="42.392674" lon="3.001167">
        <time>1970-01-01T00:00:00+00:00</time>
        <ele>115.0</ele>
      </trkpt>
      <trkpt lat="42.392736" lon="3.001049">
        <time>1970-01-01T00:00:00+00:00</time>
        <ele>115.0</ele>
      </trkpt>
      <trkpt lat="42.392747" lon="3.000736">
        <time>1970-01-01T00:00:00+00:00</time>
        <ele>118.0</ele>
      </trkpt>
      <trkpt lat="42.392852" lon="3.000779">
        <time>1970-01-01T00:00:00+00:00</time>
        <ele>117.0</ele>
      </trkpt>
      <trkpt lat="42.393264" lon="3.00073">
        <time>1970-01-01T00:00:00+00:00</time>
        <ele>117.0</ele>
      </trkpt>
      <trkpt lat="42.394001" lon="3.000446">
        <time>1970-01-01T00:00:00+00:00</time>
        <ele>119.0</ele>
      </trkpt>
      <trkpt lat="42.395436" lon="2.999772">
        <time>1970-01-01T00:00:00+00:00</time>
        <ele>121.0</ele>
      </trkpt>
      <trkpt lat="42.395429" lon="2.999709">
        <time>1970-01-01T00:00:00+00:00</time>
        <ele>121.0</ele>
      </trkpt>
      <trkpt lat="42.395475" lon="2.999543">
        <time>1970-01-01T00:00:00+00:00</time>
        <ele>121.0</ele>
      </trkpt>
      <trkpt lat="42.395731" lon="2.998932">
        <time>1970-01-01T00:00:00+00:00</time>
        <ele>125.0</ele>
      </trkpt>
      <trkpt lat="42.395747" lon="2.998811">
        <time>1970-01-01T00:00:00+00:00</time>
        <ele>125.0</ele>
      </trkpt>
      <trkpt lat="42.395879" lon="2.998642">
        <time>1970-01-01T00:00:00+00:00</time>
        <ele>126.0</ele>
      </trkpt>
      <trkpt lat="42.396013" lon="2.998524">
        <time>1970-01-01T00:00:00+00:00</time>
        <ele>128.0</ele>
      </trkpt>
      <trkpt lat="42.396258" lon="2.998352">
        <time>1970-01-01T00:00:00+00:00</time>
        <ele>129.0</ele>
      </trkpt>
      <trkpt lat="42.396847" lon="2.998165">
        <time>1970-01-01T00:00:00+00:00</time>
        <ele>131.0</ele>
      </trkpt>
      <trkpt lat="42.396998" lon="2.998085">
        <time>1970-01-01T00:00:00+00:00</time>
        <ele>131.0</ele>
      </trkpt>
      <trkpt lat="42.397071" lon="2.998013">
        <time>1970-01-01T00:00:00+00:00</time>
        <ele>131.0</ele>
      </trkpt>
      <trkpt lat="42.397276" lon="2.997692">
        <time>1970-01-01T00:00:00+00:00</time>
        <ele>132.0</ele>
      </trkpt>
      <trkpt lat="42.397451" lon="2.99725">
        <time>1970-01-01T00:00:00+00:00</time>
        <ele>134.0</ele>
      </trkpt>
      <trkpt lat="42.397587" lon="2.997039">
        <time>1970-01-01T00:00:00+00:00</time>
        <ele>135.0</ele>
      </trkpt>
      <trkpt lat="42.397783" lon="2.997114">
        <time>1970-01-01T00:00:00+00:00</time>
        <ele>136.0</ele>
      </trkpt>
      <trkpt lat="42.398133" lon="2.996967">
        <time>1970-01-01T00:00:00+00:00</time>
        <ele>140.0</ele>
      </trkpt>
      <trkpt lat="42.398717" lon="2.996803">
        <time>1970-01-01T00:00:00+00:00</time>
        <ele>144.0</ele>
      </trkpt>
      <trkpt lat="42.399043" lon="2.996616">
        <time>1970-01-01T00:00:00+00:00</time>
        <ele>149.0</ele>
      </trkpt>
      <trkpt lat="42.40011" lon="2.995775">
        <time>1970-01-01T00:00:00+00:00</time>
        <ele>156.0</ele>
      </trkpt>
      <trkpt lat="42.400725" lon="2.994918">
        <time>1970-01-01T00:00:00+00:00</time>
        <ele>164.0</ele>
      </trkpt>
      <trkpt lat="42.400838" lon="2.994816">
        <time>1970-01-01T00:00:00+00:00</time>
        <ele>163.0</ele>
      </trkpt>
      <trkpt lat="42.400906" lon="2.994754">
        <time>1970-01-01T00:00:00+00:00</time>
        <ele>163.0</ele>
      </trkpt>
      <trkpt lat="42.401219" lon="2.99455">
        <time>1970-01-01T00:00:00+00:00</time>
        <ele>162.0</ele>
      </trkpt>
      <trkpt lat="42.4014" lon="2.994501">
        <time>1970-01-01T00:00:00+00:00</time>
        <ele>162.0</ele>
      </trkpt>
      <trkpt lat="42.401593" lon="2.994248">
        <time>1970-01-01T00:00:00+00:00</time>
        <ele>164.0</ele>
      </trkpt>
      <trkpt lat="42.401907" lon="2.993791">
        <time>1970-01-01T00:00:00+00:00</time>
        <ele>167.0</ele>
      </trkpt>
      <trkpt lat="42.402139" lon="2.993268">
        <time>1970-01-01T00:00:00+00:00</time>
        <ele>173.0</ele>
      </trkpt>
      <trkpt lat="42.4022" lon="2.992873">
        <time>1970-01-01T00:00:00+00:00</time>
        <ele>178.0</ele>
      </trkpt>
      <trkpt lat="42.402367" lon="2.992696">
        <time>1970-01-01T00:00:00+00:00</time>
        <ele>176.0</ele>
      </trkpt>
      <trkpt lat="42.402798" lon="2.992631">
        <time>1970-01-01T00:00:00+00:00</time>
        <ele>175.0</ele>
      </trkpt>
      <trkpt lat="42.402985" lon="2.992436">
        <time>1970-01-01T00:00:00+00:00</time>
        <ele>176.0</ele>
      </trkpt>
      <trkpt lat="42.403127" lon="2.992177">
        <time>1970-01-01T00:00:00+00:00</time>
        <ele>179.0</ele>
      </trkpt>
      <trkpt lat="42.403449" lon="2.991697">
        <time>1970-01-01T00:00:00+00:00</time>
        <ele>185.0</ele>
      </trkpt>
      <trkpt lat="42.403885" lon="2.991318">
        <time>1970-01-01T00:00:00+00:00</time>
        <ele>194.0</ele>
      </trkpt>
      <trkpt lat="42.403992" lon="2.991185">
        <time>1970-01-01T00:00:00+00:00</time>
        <ele>197.0</ele>
      </trkpt>
      <trkpt lat="42.40407" lon="2.990963">
        <time>1970-01-01T00:00:00+00:00</time>
        <ele>199.0</ele>
      </trkpt>
      <trkpt lat="42.404219" lon="2.990759">
        <time>1970-01-01T00:00:00+00:00</time>
        <ele>203.0</ele>
      </trkpt>
      <trkpt lat="42.404452" lon="2.990607">
        <time>1970-01-01T00:00:00+00:00</time>
        <ele>206.0</ele>
      </trkpt>
      <trkpt lat="42.404651" lon="2.990438">
        <time>1970-01-01T00:00:00+00:00</time>
        <ele>206.0</ele>
      </trkpt>
      <trkpt lat="42.404754" lon="2.990261">
        <time>1970-01-01T00:00:00+00:00</time>
        <ele>205.0</ele>
      </trkpt>
      <trkpt lat="42.404836" lon="2.989928">
        <time>1970-01-01T00:00:00+00:00</time>
        <ele>203.0</ele>
      </trkpt>
      <trkpt lat="42.40488" lon="2.989746">
        <time>1970-01-01T00:00:00+00:00</time>
        <ele>202.0</ele>
      </trkpt>
      <trkpt lat="42.405075" lon="2.989193">
        <time>1970-01-01T00:00:00+00:00</time>
        <ele>202.0</ele>
      </trkpt>
      <trkpt lat="42.405214" lon="2.988995">
        <time>1970-01-01T00:00:00+00:00</time>
        <ele>203.0</ele>
      </trkpt>
      <trkpt lat="42.405625" lon="2.988906">
        <time>1970-01-01T00:00:00+00:00</time>
        <ele>213.0</ele>
      </trkpt>
      <trkpt lat="42.405824" lon="2.988837">
        <time>1970-01-01T00:00:00+00:00</time>
        <ele>216.0</ele>
      </trkpt>
      <trkpt lat="42.405824" lon="2.988837">
        <time>1970-01-01T00:00:00+00:00</time>
        <ele>216.0</ele>
      </trkpt>
      <trkpt lat="42.405625" lon="2.988906">
        <time>1970-01-01T00:00:00+00:00</time>
        <ele>213.0</ele>
      </trkpt>
      <trkpt lat="42.405214" lon="2.988995">
        <time>1970-01-01T00:00:00+00:00</time>
        <ele>203.0</ele>
      </trkpt>
      <trkpt lat="42.405075" lon="2.989193">
        <time>1970-01-01T00:00:00+00:00</time>
        <ele>202.0</ele>
      </trkpt>
      <trkpt lat="42.40488" lon="2.989746">
        <time>1970-01-01T00:00:00+00:00</time>
        <ele>202.0</ele>
      </trkpt>
      <trkpt lat="42.404836" lon="2.989928">
        <time>1970-01-01T00:00:00+00:00</time>
        <ele>203.0</ele>
      </trkpt>
      <trkpt lat="42.404754" lon="2.990261">
        <time>1970-01-01T00:00:00+00:00</time>
        <ele>205.0</ele>
      </trkpt>
      <trkpt lat="42.404651" lon="2.990438">
        <time>1970-01-01T00:00:00+00:00</time>
        <ele>206.0</ele>
      </trkpt>
      <trkpt lat="42.404452" lon="2.990607">
        <time>1970-01-01T00:00:00+00:00</time>
        <ele>206.0</ele>
      </trkpt>
      <trkpt lat="42.404219" lon="2.990759">
        <time>1970-01-01T00:00:00+00:00</time>
        <ele>203.0</ele>
      </trkpt>
      <trkpt lat="42.40407" lon="2.990963">
        <time>1970-01-01T00:00:00+00:00</time>
        <ele>199.0</ele>
      </trkpt>
      <trkpt lat="42.403992" lon="2.991185">
        <time>1970-01-01T00:00:00+00:00</time>
        <ele>197.0</ele>
      </trkpt>
      <trkpt lat="42.403885" lon="2.991318">
        <time>1970-01-01T00:00:00+00:00</time>
        <ele>194.0</ele>
      </trkpt>
      <trkpt lat="42.403449" lon="2.991697">
        <time>1970-01-01T00:00:00+00:00</time>
        <ele>185.0</ele>
      </trkpt>
      <trkpt lat="42.403127" lon="2.992177">
        <time>1970-01-01T00:00:00+00:00</time>
        <ele>179.0</ele>
      </trkpt>
      <trkpt lat="42.402985" lon="2.992436">
        <time>1970-01-01T00:00:00+00:00</time>
        <ele>176.0</ele>
      </trkpt>
      <trkpt lat="42.402798" lon="2.992631">
        <time>1970-01-01T00:00:00+00:00</time>
        <ele>175.0</ele>
      </trkpt>
      <trkpt lat="42.402367" lon="2.992696">
        <time>1970-01-01T00:00:00+00:00</time>
        <ele>176.0</ele>
      </trkpt>
      <trkpt lat="42.4022" lon="2.992873">
        <time>1970-01-01T00:00:00+00:00</time>
        <ele>178.0</ele>
      </trkpt>
      <trkpt lat="42.402139" lon="2.993268">
        <time>1970-01-01T00:00:00+00:00</time>
        <ele>173.0</ele>
      </trkpt>
      <trkpt lat="42.401907" lon="2.993791">
        <time>1970-01-01T00:00:00+00:00</time>
        <ele>167.0</ele>
      </trkpt>
      <trkpt lat="42.401593" lon="2.994248">
        <time>1970-01-01T00:00:00+00:00</time>
        <ele>164.0</ele>
      </trkpt>
      <trkpt lat="42.4014" lon="2.994501">
        <time>1970-01-01T00:00:00+00:00</time>
        <ele>162.0</ele>
      </trkpt>
      <trkpt lat="42.401219" lon="2.99455">
        <time>1970-01-01T00:00:00+00:00</time>
        <ele>162.0</ele>
      </trkpt>
      <trkpt lat="42.400906" lon="2.994754">
        <time>1970-01-01T00:00:00+00:00</time>
        <ele>163.0</ele>
      </trkpt>
      <trkpt lat="42.400838" lon="2.994816">
        <time>1970-01-01T00:00:00+00:00</time>
        <ele>163.0</ele>
      </trkpt>
      <trkpt lat="42.400725" lon="2.994918">
        <time>1970-01-01T00:00:00+00:00</time>
        <ele>164.0</ele>
      </trkpt>
      <trkpt lat="42.40011" lon="2.995775">
        <time>1970-01-01T00:00:00+00:00</time>
        <ele>156.0</ele>
      </trkpt>
      <trkpt lat="42.399043" lon="2.996616">
        <time>1970-01-01T00:00:00+00:00</time>
        <ele>149.0</ele>
      </trkpt>
      <trkpt lat="42.398717" lon="2.996803">
        <time>1970-01-01T00:00:00+00:00</time>
        <ele>144.0</ele>
      </trkpt>
      <trkpt lat="42.398133" lon="2.996967">
        <time>1970-01-01T00:00:00+00:00</time>
        <ele>140.0</ele>
      </trkpt>
      <trkpt lat="42.397783" lon="2.997114">
        <time>1970-01-01T00:00:00+00:00</time>
        <ele>136.0</ele>
      </trkpt>
      <trkpt lat="42.397587" lon="2.997039">
        <time>1970-01-01T00:00:00+00:00</time>
        <ele>135.0</ele>
      </trkpt>
      <trkpt lat="42.397451" lon="2.99725">
        <time>1970-01-01T00:00:00+00:00</time>
        <ele>134.0</ele>
      </trkpt>
      <trkpt lat="42.397276" lon="2.997692">
        <time>1970-01-01T00:00:00+00:00</time>
        <ele>132.0</ele>
      </trkpt>
      <trkpt lat="42.397071" lon="2.998013">
        <time>1970-01-01T00:00:00+00:00</time>
        <ele>131.0</ele>
      </trkpt>
      <trkpt lat="42.396998" lon="2.998085">
        <time>1970-01-01T00:00:00+00:00</time>
        <ele>131.0</ele>
      </trkpt>
      <trkpt lat="42.396847" lon="2.998165">
        <time>1970-01-01T00:00:00+00:00</time>
        <ele>131.0</ele>
      </trkpt>
      <trkpt lat="42.396258" lon="2.998352">
        <time>1970-01-01T00:00:00+00:00</time>
        <ele>129.0</ele>
      </trkpt>
      <trkpt lat="42.396013" lon="2.998524">
        <time>1970-01-01T00:00:00+00:00</time>
        <ele>128.0</ele>
      </trkpt>
      <trkpt lat="42.395879" lon="2.998642">
        <time>1970-01-01T00:00:00+00:00</time>
        <ele>126.0</ele>
      </trkpt>
      <trkpt lat="42.395747" lon="2.998811">
        <time>1970-01-01T00:00:00+00:00</time>
        <ele>125.0</ele>
      </trkpt>
      <trkpt lat="42.395731" lon="2.998932">
        <time>1970-01-01T00:00:00+00:00</time>
        <ele>125.0</ele>
      </trkpt>
      <trkpt lat="42.395475" lon="2.999543">
        <time>1970-01-01T00:00:00+00:00</time>
        <ele>121.0</ele>
      </trkpt>
      <trkpt lat="42.395429" lon="2.999709">
        <time>1970-01-01T00:00:00+00:00</time>
        <ele>121.0</ele>
      </trkpt>
      <trkpt lat="42.395436" lon="2.999772">
        <time>1970-01-01T00:00:00+00:00</time>
        <ele>121.0</ele>
      </trkpt>
      <trkpt lat="42.394001" lon="3.000446">
        <time>1970-01-01T00:00:00+00:00</time>
        <ele>119.0</ele>
      </trkpt>
      <trkpt lat="42.393264" lon="3.00073">
        <time>1970-01-01T00:00:00+00:00</time>
        <ele>117.0</ele>
      </trkpt>
      <trkpt lat="42.392852" lon="3.000779">
        <time>1970-01-01T00:00:00+00:00</time>
        <ele>117.0</ele>
      </trkpt>
      <trkpt lat="42.392747" lon="3.000736">
        <time>1970-01-01T00:00:00+00:00</time>
        <ele>118.0</ele>
      </trkpt>
      <trkpt lat="42.392736" lon="3.001049">
        <time>1970-01-01T00:00:00+00:00</time>
        <ele>115.0</ele>
      </trkpt>
      <trkpt lat="42.392674" lon="3.001167">
        <time>1970-01-01T00:00:00+00:00</time>
        <ele>115.0</ele>
      </trkpt>
      <trkpt lat="42.392317" lon="3.001374">
        <time>1970-01-01T00:00:00+00:00</time>
        <ele>115.0</ele>
      </trkpt>
      <trkpt lat="42.392197" lon="3.001487">
        <time>1970-01-01T00:00:00+00:00</time>
        <ele>115.0</ele>
      </trkpt>
      <trkpt lat="42.392146" lon="3.001355">
        <time>1970-01-01T00:00:00+00:00</time>
        <ele>116.0</ele>
      </trkpt>
      <trkpt lat="42.392064" lon="3.001256">
        <time>1970-01-01T00:00:00+00:00</time>
        <ele>117.0</ele>
      </trkpt>
      <trkpt lat="42.391814" lon="3.001417">
        <time>1970-01-01T00:00:00+00:00</time>
        <ele>115.0</ele>
      </trkpt>
      <trkpt lat="42.391597" lon="3.001513">
        <time>1970-01-01T00:00:00+00:00</time>
        <ele>114.0</ele>
      </trkpt>
      <trkpt lat="42.391475" lon="3.001527">
        <time>1970-01-01T00:00:00+00:00</time>
        <ele>114.0</ele>
      </trkpt>
      <trkpt lat="42.391394" lon="3.001518">
        <time>1970-01-01T00:00:00+00:00</time>
        <ele>115.0</ele>
      </trkpt>
      <trkpt lat="42.391198" lon="3.001551">
        <time>1970-01-01T00:00:00+00:00</time>
        <ele>115.0</ele>
      </trkpt>
      <trkpt lat="42.390992" lon="3.001551">
        <time>1970-01-01T00:00:00+00:00</time>
        <ele>116.0</ele>
      </trkpt>
      <trkpt lat="42.390954" lon="3.00171">
        <time>1970-01-01T00:00:00+00:00</time>
        <ele>115.0</ele>
      </trkpt>
      <trkpt lat="42.390921" lon="3.001739">
        <time>1970-01-01T00:00:00+00:00</time>
        <ele>114.0</ele>
      </trkpt>
      <trkpt lat="42.390819" lon="3.001754">
        <time>1970-01-01T00:00:00+00:00</time>
        <ele>114.0</ele>
      </trkpt>
      <trkpt lat="42.390645" lon="3.002512">
        <time>1970-01-01T00:00:00+00:00</time>
        <ele>105.0</ele>
      </trkpt>
      <trkpt lat="42.390428" lon="3.00251">
        <time>1970-01-01T00:00:00+00:00</time>
        <ele>106.0</ele>
      </trkpt>
      <trkpt lat="42.390143" lon="3.002467">
        <time>1970-01-01T00:00:00+00:00</time>
        <ele>106.0</ele>
      </trkpt>
    </trkseg>
  </trk>
</gpx>
